Crosby, ND

5:34 AM CDT on October 16, 2019 (GMT -0500)
Crosby

Weather History for KD50 - August, 2019

Change the Weather History Date:

Tuesday, August 13, 2019

  Actual Average (KISN) Record (KISN)
Temperature  
Mean Temperature 60 °F -  
Max Temperature 68 °F 83 °F 102 °F (1937)
Min Temperature 51 °F 54 °F 37 °F (1977)
Degree Days  
Heating Degree Days 6    
Growing Degree Days 10 (Base 50)    
Moisture  
Dew Point 52 °F    
Average Humidity 82    
Maximum Humidity 100    
Minimum Humidity 43    
Precipitation  
Precipitation 0.00 in - - ()
Sea Level Pressure  
Sea Level Pressure 30.15 in    
Wind  
Wind Speed 11 mph (NNW)    
Max Wind Speed 16 mph    
Max Gust Speed 23 mph    
Visibility 10 miles    
Events      
Averages and records for this station are not official NWS values.
T = Trace of Precipitation, MM = Missing Value Source: NWS Daily Summary

Daily Weather History Graph

Daily Weather History Graph

Search for Another Location

Airport or City:

Astronomy

Aug. 13, 2019 Rise Set
Actual Time 6:42 AM CDT 9:12 PM CDT
Civil Twilight 6:07 AM CDT 9:47 PM CDT
Nautical Twilight 5:22 AM CDT 10:32 PM CDT
Astronomical Twilight 4:30 AM CDT 11:23 PM CDT
Moon 8:38 PM CDT (8/13) 4:34 AM CDT (8/13)
Length of Visible Light 15h 40m
Length of Day
14h 29m
Waxing Gibbous, 97% of the Moon is Illuminated
Aug 13
Waxing Gibbous
Aug 15
Full
Aug 23
Last Quarter
Aug 30
New
Sep 5
First Quarter

Hourly Weather History & Observations

Time (CDT) Temp. Dew Point Humidity Pressure Visibility Wind Dir Wind Speed Gust Speed Precip Events Conditions
12:15 AM 51.8 °F 51.8 °F 100% 29.97 in 4.0 mi NNE 16.1 mph 23.0 mph N/A   Light Drizzle
12:35 AM 51.8 °F 51.8 °F 100% 29.98 in 7.0 mi NE 15.0 mph - N/A   Overcast
12:55 AM 51.8 °F 51.8 °F 100% 30.00 in 10.0 mi NNE 13.8 mph 19.6 mph N/A   Overcast
1:15 AM 51.8 °F 51.8 °F 100% 30.01 in 10.0 mi North 13.8 mph 19.6 mph N/A   Overcast
1:35 AM 51.8 °F 51.8 °F 100% 30.01 in 10.0 mi NNE 11.5 mph 17.3 mph N/A   Overcast
1:55 AM 51.8 °F 51.8 °F 100% 30.02 in 10.0 mi North 11.5 mph 17.3 mph N/A   Overcast
2:15 AM 51.8 °F 51.8 °F 100% 30.03 in 10.0 mi North 11.5 mph - N/A   Overcast
2:35 AM 51.8 °F 51.8 °F 100% 30.04 in 10.0 mi North 10.4 mph - N/A   Overcast
2:55 AM 53.6 °F 53.6 °F 100% 30.04 in 10.0 mi NNW 8.1 mph - N/A   Overcast
3:15 AM 53.6 °F 53.6 °F 100% 30.05 in 10.0 mi North 10.4 mph - N/A   Overcast
3:35 AM 53.6 °F 53.6 °F 100% 30.05 in 10.0 mi North 10.4 mph - N/A   Overcast
3:55 AM 53.6 °F 53.6 °F 100% 30.06 in 10.0 mi North 10.4 mph - N/A   Overcast
4:15 AM 53.6 °F 53.6 °F 100% 30.07 in 10.0 mi NNW 10.4 mph - N/A   Overcast
4:35 AM 53.6 °F 53.6 °F 100% 30.08 in 10.0 mi NNW 11.5 mph - N/A   Overcast
4:55 AM 53.6 °F 53.6 °F 100% 30.09 in 10.0 mi NNW 11.5 mph - N/A   Overcast
5:15 AM 53.6 °F 53.6 °F 100% 30.09 in 10.0 mi NNW 9.2 mph - N/A   Overcast
5:35 AM 53.6 °F 53.6 °F 100% 30.09 in 10.0 mi North 9.2 mph - N/A   Overcast
5:55 AM 53.6 °F 53.6 °F 100% 30.10 in 10.0 mi NNW 11.5 mph - N/A   Overcast
6:15 AM 53.6 °F 53.6 °F 100% 30.11 in 10.0 mi North 10.4 mph - N/A   Overcast
6:35 AM 53.6 °F 53.6 °F 100% 30.12 in 10.0 mi North 10.4 mph - N/A   Overcast
6:55 AM 53.6 °F 53.6 °F 100% 30.13 in 9.0 mi North 11.5 mph - N/A   Overcast
7:15 AM 53.6 °F 53.6 °F 100% 30.13 in 10.0 mi North 10.4 mph - N/A   Overcast
7:35 AM 53.6 °F 53.6 °F 100% 30.14 in 10.0 mi North 9.2 mph - N/A   Overcast
7:55 AM 53.6 °F 53.6 °F 100% 30.14 in 10.0 mi North 9.2 mph - N/A   Overcast
8:15 AM 53.6 °F 53.6 °F 100% 30.15 in 10.0 mi North 10.4 mph - N/A   Overcast
8:35 AM 53.6 °F 53.6 °F 100% 30.16 in 10.0 mi North 9.2 mph - N/A   Overcast
8:55 AM 53.6 °F 53.6 °F 100% 30.16 in 10.0 mi North 8.1 mph - N/A   Overcast
9:15 AM 55.4 °F 55.4 °F 100% 30.16 in 10.0 mi NNW 8.1 mph - N/A   Overcast
9:35 AM 55.4 °F 55.4 °F 100% 30.17 in 10.0 mi NW 10.4 mph - N/A   Overcast
9:55 AM 55.4 °F 55.4 °F 100% 30.18 in 10.0 mi NW 12.7 mph - N/A   Overcast
10:35 AM 55.4 °F 55.4 °F 100% 30.19 in 10.0 mi NW 12.7 mph - N/A   Overcast
10:55 AM 57.2 °F 57.2 °F 100% 30.19 in 10.0 mi NNW 10.4 mph - N/A   Overcast
11:15 AM 57.2 °F 57.2 °F 100% 30.19 in 10.0 mi NW 10.4 mph - N/A   Overcast
11:35 AM 57.2 °F 57.2 °F 100% 30.20 in 10.0 mi NW 11.5 mph - N/A   Overcast
11:55 AM 59.0 °F 59.0 °F 100% 30.20 in 10.0 mi NNW 10.4 mph - N/A   Overcast
12:15 PM 59.0 °F 57.2 °F 94% 30.20 in 10.0 mi NNW 12.7 mph - N/A   Overcast
12:35 PM 60.8 °F 55.4 °F 82% 30.20 in 10.0 mi NNW 12.7 mph - N/A   Overcast
12:55 PM 62.6 °F 53.6 °F 72% 30.20 in 10.0 mi NNW 11.5 mph - N/A   Overcast
1:15 PM 64.4 °F 51.8 °F 64% 30.20 in 10.0 mi North 12.7 mph - N/A   Overcast
1:35 PM 66.2 °F 50.0 °F 56% 30.20 in 10.0 mi NNW 12.7 mph 18.4 mph N/A   Overcast
1:55 PM 64.4 °F 48.2 °F 56% 30.20 in 10.0 mi North 9.2 mph 15.0 mph N/A   Overcast
2:15 PM 66.2 °F 46.4 °F 49% 30.20 in 10.0 mi North 9.2 mph - N/A   Overcast
2:35 PM 68.0 °F 48.2 °F 49% 30.20 in 10.0 mi North 9.2 mph 17.3 mph N/A   Mostly Cloudy
2:55 PM 68.0 °F 46.4 °F 46% 30.19 in 10.0 mi NNW 9.2 mph - N/A   Mostly Cloudy
3:15 PM 68.0 °F 46.4 °F 46% 30.19 in 10.0 mi North 9.2 mph 16.1 mph N/A   Mostly Cloudy
3:35 PM 68.0 °F 46.4 °F 46% 30.19 in 10.0 mi NNW 11.5 mph - N/A   Overcast
3:55 PM 66.2 °F 46.4 °F 49% 30.19 in 10.0 mi NNW 8.1 mph 15.0 mph N/A   Overcast
4:15 PM 68.0 °F 46.4 °F 46% 30.19 in 10.0 mi Variable 6.9 mph 13.8 mph N/A   Overcast
4:35 PM 68.0 °F 46.4 °F 46% 30.19 in 10.0 mi North 6.9 mph - N/A   Overcast
4:55 PM 68.0 °F 44.6 °F 43% 30.19 in 10.0 mi Variable 4.6 mph - N/A   Overcast
5:15 PM 68.0 °F 46.4 °F 46% 30.19 in 10.0 mi Variable 5.8 mph - N/A   Overcast
5:35 PM 68.0 °F 46.4 °F 46% 30.19 in 10.0 mi Variable 5.8 mph - N/A   Overcast
5:55 PM 68.0 °F 46.4 °F 46% 30.19 in 10.0 mi NNW 6.9 mph - N/A   Overcast
6:15 PM 68.0 °F 46.4 °F 46% 30.19 in 10.0 mi Variable 5.8 mph - N/A   Overcast
6:35 PM 68.0 °F 46.4 °F 46% 30.19 in 10.0 mi WNW 5.8 mph - N/A   Overcast
6:55 PM 68.0 °F 46.4 °F 46% 30.19 in 10.0 mi WNW 5.8 mph - N/A   Overcast
7:15 PM 66.2 °F 46.4 °F 49% 30.19 in 10.0 mi NW 6.9 mph - N/A   Overcast
7:35 PM 66.2 °F 46.4 °F 49% 30.18 in 10.0 mi WNW 4.6 mph - N/A   Overcast
7:55 PM 66.2 °F 44.6 °F 46% 30.18 in 10.0 mi WNW 4.6 mph - N/A   Overcast
8:15 PM 66.2 °F 46.4 °F 49% 30.18 in 10.0 mi WNW 3.5 mph - N/A   Overcast
8:35 PM 64.4 °F 48.2 °F 56% 30.18 in 10.0 mi WNW 3.5 mph - N/A   Overcast
8:55 PM 62.6 °F 50.0 °F 63% 30.18 in 10.0 mi WNW 4.6 mph - N/A   Overcast
9:15 PM 60.8 °F 53.6 °F 77% 30.18 in 10.0 mi West 6.9 mph - N/A   Overcast
9:35 PM 57.2 °F 55.4 °F 94% 30.19 in 10.0 mi West 5.8 mph - N/A   Mostly Cloudy
9:55 PM 55.4 °F 55.4 °F 100% 30.19 in 10.0 mi West 4.6 mph - N/A   Clear
10:15 PM 53.6 °F 53.6 °F 100% 30.20 in 10.0 mi WSW 4.6 mph - N/A   Clear
10:35 PM 53.6 °F 53.6 °F 100% 30.20 in 10.0 mi WSW 4.6 mph - N/A   Clear
10:55 PM 51.8 °F 51.8 °F 100% 30.20 in 10.0 mi SSW 4.6 mph - N/A   Clear
11:15 PM 51.8 °F 51.8 °F 100% 30.20 in 10.0 mi SW 3.5 mph - N/A   Partly Cloudy
11:35 PM 51.8 °F 51.8 °F 100% 30.20 in 10.0 mi WSW 3.5 mph - N/A   Mostly Cloudy
11:55 PM 53.6 °F 53.6 °F 100% 30.20 in 10.0 mi WSW 4.6 mph - N/A   Overcast